When you browse on this site, cookies collect data to enhance your experience and personalize the content and advertising you see.
Visit our Privacy Policy to learn more. By continuing to use the site, you agree to this use of cookies and data.
  • In United Kingdom
  • List of Countries
  • For 7 days
  • Water Temperature
  • Weather Map
  • Weather Widgets
  • user-avatar
    Login

    Hourly Weather Mleyev

    Today, 14 October, Monday

    Time Temperature Precipitation Wind Pressure Humidity
    00:00 +15°C° 0 mm 2 mps 757 mmHg 56%
    01:00 +14°C° 0 mm 2 mps 757 mmHg 58%
    02:00 +14°C° 0 mm 2 mps 757 mmHg 61%
    03:00 +13°C° 0 mm 2 mps 757 mmHg 62%
    04:00 +13°C° 0 mm 2 mps 757 mmHg 63%
    05:00 +13°C° 0 mm 2 mps 756 mmHg 63%
    06:00 +14°C° 0 mm 2 mps 757 mmHg 61%
    07:00 +14°C° 0 mm 2 mps 757 mmHg 59%
    08:00 +15°C° 0 mm 2 mps 757 mmHg 56%
    09:00 +17°C° 0 mm 2 mps 757 mmHg 51%
    10:00 +19°C° 0 mm 3 mps 757 mmHg 45%
    11:00 +21°C° 0 mm 3 mps 757 mmHg 40%
    12:00 +22°C° 0 mm 3 mps 757 mmHg 39%
    13:00 +24°C° 0 mm 3 mps 756 mmHg 38%
    14:00 +23°C° 0 mm 4 mps 756 mmHg 38%
    15:00 +22°C° 0 mm 3 mps 756 mmHg 42%
    16:00 +20°C° 0 mm 3 mps 755 mmHg 47%
    17:00 +19°C° 0 mm 2 mps 755 mmHg 52%
    18:00 +18°C° 0 mm 2 mps 755 mmHg 55%
    19:00 +17°C° 0 mm 2 mps 755 mmHg 58%
    20:00 +17°C° 0 mm 2 mps 756 mmHg 60%
    21:00 +16°C° 0 mm 3 mps 755 mmHg 62%
    22:00 +16°C° 0 mm 3 mps 755 mmHg 64%
    23:00 +14°C° 0 mm 3 mps 755 mmHg 65%

    Tomorrow, 15 October, Tuesday

    Time Temperature Precipitation Wind Pressure Humidity
    00:00 +14°C° 0 mm 3 mps 755 mmHg 69%
    01:00 +13°C° 0 mm 3 mps 755 mmHg 72%
    02:00 +13°C° 0 mm 3 mps 755 mmHg 75%
    03:00 +12°C° 0 mm 3 mps 755 mmHg 77%
    04:00 +13°C° 0 mm 2 mps 755 mmHg 79%
    05:00 +13°C° 0 mm 2 mps 755 mmHg 81%
    06:00 +13°C° 0 mm 2 mps 755 mmHg 78%
    07:00 +14°C° 0 mm 2 mps 755 mmHg 75%
    08:00 +15°C° 0 mm 2 mps 756 mmHg 72%
    09:00 +17°C° 0 mm 2 mps 755 mmHg 64%
    10:00 +19°C° 0 mm 2 mps 755 mmHg 57%
    11:00 +21°C° 0 mm 2 mps 755 mmHg 49%
    12:00 +23°C° 0 mm 1 mps 755 mmHg 46%
    13:00 +24°C° 0 mm 1 mps 755 mmHg 43%
    14:00 +24°C° 0 mm 1 mps 755 mmHg 40%
    15:00 +23°C° 0 mm 1 mps 755 mmHg 45%
    16:00 +21°C° 0 mm 1 mps 754 mmHg 49%
    17:00 +18°C° 0 mm 0 mps 754 mmHg 53%
    18:00 +19°C° 0 mm 1 mps 754 mmHg 56%
    19:00 +18°C° 0 mm 1 mps 755 mmHg 58%
    20:00 +18°C° 0 mm 1 mps 755 mmHg 61%
    21:00 +16°C° 0 mm 1 mps 755 mmHg 63%
    22:00 +16°C° 0 mm 1 mps 755 mmHg 64%
    23:00 +15°C° 0 mm 1 mps 755 mmHg 66%

    Day after tomorrow, 16 October, Wednesday

    Time Temperature Precipitation Wind Pressure Humidity
    00:00 +15°C° 0 mm 1 mps 755 mmHg 66%
    01:00 +15°C° 0 mm 1 mps 755 mmHg 66%
    02:00 +14°C° 0 mm 1 mps 756 mmHg 66%
    03:00 +14°C° 0 mm 1 mps 756 mmHg 65%
    04:00 +13°C° 0 mm 1 mps 755 mmHg 63%
    05:00 +13°C° 0 mm 1 mps 755 mmHg 62%
    06:00 +14°C° 0 mm 1 mps 755 mmHg 59%
    07:00 +15°C° 0 mm 2 mps 756 mmHg 56%
    08:00 +15°C° 0 mm 2 mps 756 mmHg 53%
    09:00 +17°C° 0 mm 2 mps 756 mmHg 47%
    10:00 +20°C° 0 mm 2 mps 756 mmHg 42%
    11:00 +22°C° 0 mm 3 mps 756 mmHg 36%
    12:00 +22°C° 0 mm 3 mps 755 mmHg 35%
    13:00 +24°C° 0 mm 3 mps 755 mmHg 33%
    14:00 +25°C° 0 mm 3 mps 755 mmHg 31%
    15:00 +22°C° 0 mm 3 mps 755 mmHg 36%
    16:00 +20°C° 0 mm 2 mps 755 mmHg 41%
    17:00 +19°C° 0 mm 2 mps 754 mmHg 46%
    18:00 +18°C° 0 mm 2 mps 755 mmHg 47%
    19:00 +17°C° 0 mm 2 mps 755 mmHg 49%
    20:00 +16°C° 0 mm 2 mps 755 mmHg 50%
    21:00 +16°C° 0 mm 2 mps 755 mmHg 50%
    22:00 +15°C° 0 mm 2 mps 755 mmHg 51%
    23:00 +15°C° 0 mm 2 mps 755 mmHg 51%

    17 October, Thursday

    Time Temperature Precipitation Wind Pressure Humidity
    00:00 +14°C° 0 mm 2 mps 755 mmHg 52%
    01:00 +14°C° 0 mm 2 mps 755 mmHg 52%
    02:00 +13°C° 0 mm 2 mps 755 mmHg 53%
    03:00 +13°C° 0 mm 2 mps 755 mmHg 53%
    04:00 +13°C° 0 mm 2 mps 755 mmHg 54%
    05:00 +12°C° 0 mm 2 mps 755 mmHg 55%
    06:00 +13°C° 0 mm 2 mps 755 mmHg 54%
    07:00 +14°C° 0 mm 2 mps 755 mmHg 53%
    08:00 +15°C° 0 mm 2 mps 755 mmHg 52%
    09:00 +17°C° 0 mm 2 mps 755 mmHg 47%
    10:00 +19°C° 0 mm 2 mps 755 mmHg 42%
    11:00 +21°C° 0 mm 2 mps 755 mmHg 36%
    12:00 +23°C° 0 mm 2 mps 755 mmHg 35%
    13:00 +24°C° 0 mm 2 mps 754 mmHg 33%
    14:00 +24°C° 0 mm 2 mps 754 mmHg 31%
    15:00 +23°C° 0 mm 2 mps 754 mmHg 35%
    16:00 +20°C° 0 mm 2 mps 754 mmHg 40%
    17:00 +19°C° 0 mm 2 mps 753 mmHg 44%
    18:00 +18°C° 0 mm 2 mps 754 mmHg 46%
    19:00 +18°C° 0 mm 1 mps 754 mmHg 48%
    20:00 +16°C° 0 mm 1 mps 754 mmHg 50%
    21:00 +16°C° 0 mm 1 mps 754 mmHg 51%
    22:00 +15°C° 0 mm 1 mps 754 mmHg 53%
    23:00 +15°C° 0 mm 1 mps 754 mmHg 55%

    18 October, Friday

    Time Temperature Precipitation Wind Pressure Humidity
    00:00 +14°C° 0 mm 1 mps 754 mmHg 59%
    01:00 +14°C° 0 mm 1 mps 754 mmHg 62%
    02:00 +14°C° 0 mm 1 mps 754 mmHg 66%
    03:00 +13°C° 0 mm 2 mps 755 mmHg 72%
    04:00 +13°C° 0 mm 2 mps 755 mmHg 77%
    05:00 +12°C° 0 mm 2 mps 755 mmHg 83%
    06:00 +13°C° 0 mm 2 mps 755 mmHg 81%
    07:00 +14°C° 0 mm 2 mps 755 mmHg 78%
    08:00 +14°C° 0 mm 2 mps 755 mmHg 76%
    09:00 +16°C° 0 mm 2 mps 756 mmHg 68%
    10:00 +18°C° 0 mm 2 mps 756 mmHg 60%
    11:00 +19°C° 0 mm 2 mps 756 mmHg 52%
    12:00 +20°C° 0 mm 2 mps 756 mmHg 49%
    13:00 +20°C° 0 mm 2 mps 756 mmHg 46%
    14:00 +21°C° 0 mm 2 mps 755 mmHg 43%
    15:00 +20°C° 0 mm 2 mps 755 mmHg 48%
    16:00 +18°C° 0 mm 2 mps 755 mmHg 54%
    17:00 +17°C° 0 mm 2 mps 755 mmHg 59%
    18:00 +16°C° 0 mm 2 mps 755 mmHg 62%
    19:00 +15°C° 0 mm 2 mps 756 mmHg 65%
    20:00 +14°C° 0 mm 2 mps 756 mmHg 68%
    21:00 +14°C° 0 mm 2 mps 756 mmHg 70%
    22:00 +13°C° 0 mm 2 mps 756 mmHg 73%
    23:00 +13°C° 0 mm 1 mps 756 mmHg 75%

    19 October, Saturday

    Time Temperature Precipitation Wind Pressure Humidity
    00:00 +13°C° 0 mm 1 mps 756 mmHg 77%
    01:00 +12°C° 0 mm 1 mps 756 mmHg 80%
    02:00 +12°C° 0 mm 1 mps 756 mmHg 82%
    03:00 +12°C° 0 mm 1 mps 756 mmHg 84%
    04:00 +11°C° 0 mm 1 mps 756 mmHg 85%
    05:00 +11°C° 0 mm 1 mps 756 mmHg 87%
    06:00 +12°C° 0 mm 1 mps 757 mmHg 85%
    07:00 +13°C° 0 mm 2 mps 757 mmHg 82%
    08:00 +13°C° 0 mm 2 mps 757 mmHg 80%
    09:00 +15°C° 0 mm 2 mps 757 mmHg 72%
    10:00 +17°C° 0 mm 2 mps 757 mmHg 64%
    11:00 +18°C° 0 mm 2 mps 757 mmHg 57%
    12:00 +19°C° 0 mm 3 mps 757 mmHg 54%
    13:00 +19°C° 0 mm 3 mps 756 mmHg 51%
    14:00 +20°C° 0 mm 3 mps 756 mmHg 48%
    15:00 +18°C° 0 mm 3 mps 756 mmHg 53%
    16:00 +17°C° 0 mm 3 mps 756 mmHg 58%
    17:00 +16°C° 0 mm 3 mps 756 mmHg 63%
    18:00 +15°C° 0 mm 2 mps 756 mmHg 66%
    19:00 +14°C° 0 mm 2 mps 756 mmHg 68%
    20:00 +14°C° 0 mm 2 mps 756 mmHg 71%
    21:00 +13°C° 0 mm 2 mps 756 mmHg 73%
    22:00 +13°C° 0 mm 2 mps 756 mmHg 75%
    23:00 +12°C° 0 mm 2 mps 756 mmHg 77%
    Show more